EW5655 Weather Reports


time (UTC)temp
C
wind
direction
speed
KPH
gust
KPH
rain 1hr
cm
rain 24hr
cm
rain mn
cm
humidity
%
barometer
mb
20260506002023 22 223 6.4 14.5 0.00 0.00 0.00 29 1011.2
20260506001522 22 237 8.0 16.1 0.00 0.00 0.00 28 1011.2
20260506001023 22 271 9.7 16.1 0.00 0.00 0.00 27 1011.1
20260506000523 22 215 8.0 22.5 0.00 0.00 0.00 27 1011.2
20260506000022 22 302 8.0 22.5 0.00 0.00 0.00 28 1011.1
20260505235522 22 235 12.9 20.9 0.00 0.00 0.00 27 1011.2
20260505235021 23 286 9.7 17.7 0.00 0.00 0.00 28 1011.1
20260505234521 23 235 11.3 22.5 0.00 0.00 0.00 27 1011.2
20260505234020 23 240 9.7 30.6 0.00 0.00 0.00 28 1011.3
20260505233520 23 191 16.1 30.6 0.00 0.00 0.00 27 1011.2
20260505233020 23 244 9.7 20.9 0.00 0.00 0.00 28 1011.2
20260505232520 23 250 9.7 20.9 0.00 0.00 0.00 28 1011.2
20260505232019 23 262 9.7 24.1 0.00 0.00 0.00 28 1011.4
20260505231525 23 291 12.9 24.1 0.00 0.00 0.00 27 1011.3
20260505231018 23 271 12.9 22.5 0.00 0.00 0.00 27 1011.4
20260505230518 23 291 12.9 17.7 0.00 0.00 0.00 28 1011.4
20260505230018 23 281 11.3 22.5 0.00 0.00 0.00 28 1011.5
20260505225517 22 261 9.7 25.7 0.00 0.00 0.00 28 1011.5
20260505225017 23 240 16.1 25.7 0.00 0.00 0.00 28 1011.6
20260505224525 23 185 14.5 29.0 0.00 0.00 0.00 27 1011.7
20260505224016 23 276 12.9 30.6 0.00 0.00 0.00 27 1011.7
20260505223514 23 232 12.9 30.6 0.00 0.00 0.00 28 1011.7
20260505223017 23 236 14.5 25.7 0.00 0.00 0.00 28 1011.7
20260505222512 23 294 17.7 25.7 0.00 0.00 0.00 29 1011.8
20260505222012 23 232 11.3 20.9 0.00 0.00 0.00 30 1011.9
20260505221512 23 207 11.3 30.6 0.00 0.00 0.00 29 1012.0
20260505221011 23 202 14.5 30.6 0.00 0.00 0.00 29 1012.0
20260505220512 23 243 11.3 29.0 0.00 0.00 0.00 28 1012.1
20260505220010 23 281 17.7 29.0 0.00 0.00 0.00 29 1012.3
20260505215509 23 211 11.3 20.9 0.00 0.00 0.00 30 1012.2
20260505215009 23 240 8.0 32.2 0.00 0.00 0.00 30 1012.4
20260505214507 23 296 17.7 32.2 0.00 0.00 0.00 29 1012.4
20260505214005 23 241 11.3 22.5 0.00 0.00 0.00 32 1012.6
20260505213505 22 237 9.7 17.7 0.00 0.00 0.00 33 1012.6
20260505213006 22 253 8.0 17.7 0.00 0.00 0.00 34 1012.7
20260505212503 22 271 9.7 19.3 0.00 0.00 0.00 35 1012.9
20260505212002 22 239 11.3 20.9 0.00 0.00 0.00 35 1012.9
20260505211504 21 224 12.9 20.9 0.00 0.00 0.00 36 1013.0
20260505211100 22 217 11.3 20.9 0.00 0.00 0.00 36 1013.1
20260505210559 22 198 11.3 22.5 0.00 0.00 0.00 36 1013.1
20260505210058 21 269 11.3 22.5 0.00 0.00 0.00 36 1013.2
20260505205558 21 201 12.9 25.7 0.00 0.00 0.00 36 1013.4
20260505205057 21 202 16.1 25.7 0.00 0.00 0.00 37 1013.4
20260505204557 21 292 12.9 22.5 0.00 0.00 0.00 37 1013.5
20260505204057 21 181 12.9 22.5 0.00 0.00 0.00 37 1013.6
20260505203554 21 248 12.9 24.1 0.00 0.00 0.00 38 1013.8
20260505203119 21 255 14.5 24.1 0.00 0.00 0.00 38 1013.9
20260505202555 21 234 12.9 24.1 0.00 0.00 0.00 38 1013.9
20260505202055 21 234 12.9 22.5 0.00 0.00 0.00 37 1013.9
20260505201554 20 228 14.5 22.5 0.00 0.00 0.00 38 1014.0
20260505201054 20 318 12.9 22.5 0.00 0.00 0.00 38 1014.1
20260505200554 20 209 11.3 32.2 0.00 0.00 0.00 38 1014.0
20260505200053 20 202 14.5 32.2 0.00 0.00 0.00 38 1014.1
20260505195553 20 294 11.3 20.9 0.00 0.00 0.00 38 1014.2
20260505195053 20 199 11.3 20.9 0.00 0.00 0.00 38 1014.2
20260505194553 20 238 11.3 22.5 0.00 0.00 0.00 40 1014.3
20260505194053 20 231 12.9 22.5 0.00 0.00 0.00 40 1014.4
20260505193553 20 217 11.3 24.1 0.00 0.00 0.00 40 1014.4
20260505193053 19 251 12.9 29.0 0.00 0.00 0.00 40 1014.4
20260505192557 19 261 14.5 38.6 0.00 0.00 0.00 42 1014.6
20260505192054 19 250 20.9 41.8 0.00 0.00 0.00 42 1014.7
20260505191555 19 291 20.9 41.8 0.00 0.00 0.00 43 1014.6
20260505191053 18 263 19.3 40.2 0.00 0.00 0.00 42 1014.6
20260505190552 18 272 16.1 40.2 0.00 0.00 0.00 44 1014.6
20260505190052 18 254 12.9 37.0 0.00 0.00 0.00 46 1014.8
20260505185551 18 255 20.9 40.2 0.00 0.00 0.00 43 1015.0
20260505185051 18 232 24.1 43.5 0.00 0.00 0.00 41 1015.3
20260505184552 18 286 25.7 43.5 0.00 0.00 0.00 39 1015.4
20260505184051 18 227 17.7 35.4 0.00 0.00 0.00 39 1015.3
20260505183550 18 235 16.1 29.0 0.00 0.00 0.00 39 1015.2
20260505183049 18 327 16.1 25.7 0.00 0.00 0.00 40 1014.9
20260505182550 18 298 9.7 32.2 0.00 0.00 0.00 41 1014.8
20260505182048 18 234 14.5 35.4 0.00 0.00 0.00 40 1014.7
20260505181547 19 344 16.1 35.4 0.00 0.00 0.00 40 1014.8
20260505181047 19 252 16.1 35.4 0.00 0.00 0.00 38 1014.8
20260505180550 19 286 16.1 35.4 0.00 0.00 0.00 37 1014.6
20260505180048 20 300 12.9 25.7 0.00 0.00 0.00 36 1014.7
20260505175546 20 238 14.5 32.2 0.00 0.00 0.00 35 1014.5
20260505175045 20 238 16.1 30.6 0.00 0.00 0.00 35 1014.5
20260505174545 20 254 12.9 29.0 0.00 0.00 0.00 35 1014.5
20260505174046 20 276 14.5 29.0 0.00 0.00 0.00 34 1014.5
20260505173545 20 239 11.3 25.7 0.00 0.00 0.00 34 1014.4
20260505173045 20 260 17.7 24.1 0.00 0.00 0.00 34 1014.4
20260505172548 21 256 12.9 22.5 0.00 0.00 0.00 34 1014.3
20260505172045 20 181 9.7 19.3 0.00 0.00 0.00 34 1014.4
20260505171545 20 251 12.9 25.7 0.00 0.00 0.00 34 1014.4
20260505171044 20 237 12.9 29.0 0.00 0.00 0.00 34 1014.4
20260505170544 20 259 14.5 29.0 0.00 0.00 0.00 34 1014.5
20260505170044 21 225 12.9 22.5 0.00 0.00 0.00 35 1014.4
20260505165546 21 300 8.0 22.5 0.00 0.00 0.00 35 1014.2
20260505165043 21 245 6.4 17.7 0.00 0.00 0.00 36 1014.2
20260505164541 20 296 8.0 17.7 0.00 0.00 0.00 35 1014.2
20260505164043 20 244 8.0 17.7 0.00 0.00 0.00 38 1014.2
20260505163539 20 253 8.0 17.7 0.00 0.00 0.00 38 1014.3
20260505163037 19 263 6.4 14.5 0.00 0.00 0.00 39 1014.3
20260505162539 19 256 6.4 12.9 0.00 0.00 0.00 40 1014.4
20260505162035 18 313 4.8 11.3 0.00 0.00 0.00 40 1014.2
20260505161534 18 259 3.2 12.9 0.00 0.00 0.00 41 1014.2
20260505161036 18 257 6.4 14.5 0.00 0.00 0.00 40 1014.3
20260505160533 18 242 8.0 14.5 0.00 0.00 0.00 40 1014.2
20260505153026 17 311 4.8 12.9 0.00 0.00 0.00 44 1014.4
20260505152526 17 272 4.8 12.9 0.00 0.00 0.00 43 1014.4
20260505152025 17 276 4.8 11.3 0.00 0.00 0.00 44 1014.4
20260505151533 17 323 4.8 9.7 0.00 0.00 0.00 46 1014.4
20260505151026 17 307 3.2 8.0 0.00 0.00 0.00 47 1014.4
20260505150529 17 281 1.6 6.4 0.00 0.00 0.00 47 1014.4
20260505140518 15 239 0.0 1.6 0.00 0.00 0.00 55 1014.6
20260505125002 13 319 0.0 3.2 0.00 0.00 0.00 59 1014.2
20260505124501 13 319 0.0 3.2 0.00 0.00 0.00 58 1014.0
20260505124000 13 319 0.0 3.2 0.00 0.00 0.00 58 1014.1
20260505123559 13 319 0.0 6.4 0.00 0.00 0.00 58 1014.0
20260505123100 13 319 1.6 6.4 0.00 0.00 0.00 58 1014.0
20260505122558 13 319 0.0 6.4 0.00 0.00 0.00 57 1014.0
20260505122158 13 319 0.0 6.4 0.00 0.00 0.00 57 1014.0
20260505121600 13 303 0.0 3.2 0.00 0.00 0.00 57 1013.9
20260505121057 13 303 0.0 6.4 0.00 0.00 0.00 55 1013.8
20260505120555 14 303 0.0 6.4 0.00 0.00 0.00 55 1013.7
20260505120111 14 303 0.0 6.4 0.00 0.00 0.00 55 1013.8
20260505115555 15 303 0.0 6.4 0.00 0.00 0.00 53 1013.7
20260505115055 15 303 0.0 8.0 0.00 0.00 0.00 53 1013.8
20260505114557 15 303 0.0 8.0 0.00 0.00 0.00 52 1013.7
20260505114054 15 303 1.6 6.4 0.00 0.00 0.00 52 1013.7
20260505113559 15 303 1.6 6.4 0.00 0.00 0.00 51 1013.7
20260505113103 15 294 0.0 6.4 0.00 0.00 0.00 50 1013.6
20260505112553 15 294 0.0 8.0 0.00 0.00 0.00 51 1013.6
20260505112053 15 294 1.6 8.0 0.00 0.00 0.00 50 1013.5
20260505111555 15 286 1.6 8.0 0.00 0.00 0.00 49 1013.4
20260505111054 15 276 1.6 6.4 0.00 0.00 0.00 49 1013.4
20260505110553 15 263 1.6 8.0 0.00 0.00 0.00 49 1013.5
20260505102051 14 269 0.0 1.6 0.00 0.00 0.00 54 1013.8
20260505101556 14 269 0.0 0.0 0.00 0.00 0.00 53 1013.6
20260505101051 14 269 0.0 1.6 0.00 0.00 0.00 53 1013.5
20260505100550 14 269 0.0 1.6 0.00 0.00 0.00 53 1013.5
20260505100049 14 269 0.0 1.6 0.00 0.00 0.00 52 1013.6
20260505095548 15 269 0.0 3.2 0.00 0.00 0.00 51 1013.4
20260505095052 14 269 0.0 1.6 0.00 0.00 0.00 52 1013.4
20260505094558 14 269 0.0 0.0 0.00 0.00 0.00 52 1013.5
20260505094047 15 269 0.0 0.0 0.00 0.00 0.00 50 1013.4
20260505093550 15 269 0.0 0.0 0.00 0.00 0.00 50 1013.4
20260505093053 15 269 0.0 1.6 0.00 0.00 0.00 49 1013.3
20260505092544 15 269 0.0 1.6 0.00 0.00 0.00 47 1013.3
20260505092049 16 269 0.0 6.4 0.00 0.00 0.00 45 1013.3
20260505091544 15 269 1.6 6.4 0.00 0.00 0.00 45 1013.3
20260505091044 15 265 1.6 8.0 0.00 0.00 0.00 45 1013.2
20260505090543 15 244 3.2 8.0 0.00 0.00 0.00 45 1013.5
20260505090044 15 244 1.6 9.7 0.00 0.00 0.00 46 1013.6
20260505085545 16 248 4.8 9.7 0.00 0.00 0.00 45 1013.7
20260505085047 16 276 4.8 9.7 0.00 0.00 0.00 46 1013.7
20260505084543 16 255 4.8 11.3 0.00 0.00 0.00 45 1013.7
20260505084042 16 261 6.4 11.3 0.00 0.00 0.00 45 1013.6
20260505083544 16 258 6.4 11.3 0.00 0.00 0.00 44 1013.8
20260505083055 16 244 4.8 8.0 0.00 0.00 0.00 45 1013.8
20260505082541 15 199 1.6 6.4 0.00 0.00 0.00 49 1013.9
20260505082040 15 199 1.6 3.2 0.00 0.00 0.00 49 1013.9
20260505081540 15 199 1.6 3.2 0.00 0.00 0.00 48 1013.9
20260505081039 15 199 0.0 3.2 0.00 0.00 0.00 49 1013.9
20260505080537 16 199 0.0 1.6 0.00 0.00 0.00 46 1013.9
20260505080041 16 199 0.0 0.0 0.00 0.00 0.00 46 1013.9
20260505075534 16 199 0.0 1.6 0.00 0.00 0.00 43 1013.8
20260505075035 17 199 0.0 6.4 0.00 0.00 0.00 41 1013.9
20260505074534 17 199 1.6 4.8 0.00 0.00 0.00 41 1013.9
20260505074033 17 195 0.0 6.4 0.00 0.00 0.00 40 1013.7
20260505072511 17 268 0.0 6.4 0.00 0.00 0.00 37 1014.0
20260505072011 17 286 0.0 8.0 0.00 0.00 0.00 36 1014.0
20260505071510 17 269 3.2 9.7 0.00 0.00 0.00 35 1014.0
20260505071010 17 286 3.2 9.7 0.00 0.00 0.00 35 1013.8
20260505070509 17 260 3.2 9.7 0.00 0.00 0.00 34 1013.8
20260505070017 17 255 6.4 9.7 0.00 0.00 0.00 34 1013.6
20260505065508 17 265 4.8 8.0 0.00 0.00 0.00 33 1013.3
20260505065007 17 252 3.2 9.7 0.00 0.00 0.00 33 1013.3
20260505064512 17 244 4.8 9.7 0.00 0.00 0.00 33 1013.5
20260505064005 17 252 3.2 4.8 0.00 0.00 0.00 33 1013.5
20260505063505 17 300 1.6 3.2 0.00 0.00 0.00 35 1013.6
20260505063005 17 300 0.0 3.2 0.00 0.00 0.00 35 1013.7
20260505062504 17 300 0.0 3.2 0.00 0.00 0.00 35 1013.6
20260505062002 17 300 0.0 3.2 0.00 0.00 0.00 35 1013.6
20260505061504 17 300 0.0 0.0 0.00 0.00 0.00 37 1013.5
20260505061002 17 300 0.0 0.0 0.00 0.00 0.00 37 1013.7
20260505060604 17 300 0.0 0.0 0.00 0.00 0.00 35 1013.7
20260505055600 17 300 0.0 0.0 0.00 0.00 0.00 37 1013.9
20260505055059 17 300 0.0 1.6 0.00 0.00 0.00 36 1013.9
20260505054559 17 300 0.0 1.6 0.00 0.00 0.00 35 1014.0
20260505054058 17 300 0.0 3.2 0.00 0.00 0.00 36 1013.9
20260505053558 17 300 0.0 3.2 0.00 0.00 0.00 38 1013.9
20260505053059 17 300 0.0 0.0 0.00 0.00 0.00 37 1013.8
20260505052558 17 300 0.0 0.0 0.00 0.00 0.00 35 1013.7
20260505052058 17 300 0.0 0.0 0.00 0.00 0.00 34 1013.7
20260505051558 17 300 0.0 0.0 0.00 0.00 0.00 34 1013.9
20260505051059 18 300 0.0 0.0 0.00 0.00 0.00 35 1013.7
20260505050557 18 300 0.0 0.0 0.00 0.00 0.00 34 1013.7
20260505041604 20 232 1.6 8.0 0.00 0.00 0.00 22 1013.7
20260505041057 21 271 1.6 8.0 0.00 0.00 0.00 21 1013.7
20260505040555 21 259 3.2 8.0 0.00 0.00 0.00 21 1013.7
20260505035555 21 268 4.8 14.5 0.00 0.00 0.00 20 1013.6
20260505035057 21 261 6.4 14.5 0.00 0.00 0.00 20 1013.5
20260505034556 21 253 9.7 19.3 0.00 0.00 0.00 19 1013.5
20260505034054 22 246 8.0 19.3 0.00 0.00 0.00 19 1013.5
20260505033554 22 263 8.0 16.1 0.00 0.00 0.00 19 1013.3
20260505033101 22 281 8.0 20.9 0.00 0.00 0.00 19 1013.2
20260505032552 22 246 12.9 20.9 0.00 0.00 0.00 18 1013.1
20260505032054 22 242 8.0 17.7 0.00 0.00 0.00 19 1013.1
20260505031555 22 267 4.8 12.9 0.00 0.00 0.00 19 1013.0
20260505031050 22 305 6.4 12.9 0.00 0.00 0.00 19 1013.0
20260505030553 22 234 6.4 16.1 0.00 0.00 0.00 19 1012.8
20260505030050 22 259 6.4 12.9 0.00 0.00 0.00 19 1012.8
20260505025550 22 242 6.4 12.9 0.00 0.00 0.00 19 1012.8
20260505025050 22 292 6.4 16.1 0.00 0.00 0.00 19 1012.8
20260505024549 23 291 4.8 16.1 0.00 0.00 0.00 19 1012.7
20260505024049 23 301 4.8 17.7 0.00 0.00 0.00 19 1012.8
20260505023549 23 254 8.0 17.7 0.00 0.00 0.00 19 1012.8
20260505023049 23 281 8.0 17.7 0.00 0.00 0.00 19 1012.6
20260505022549 23 276 8.0 17.7 0.00 0.00 0.00 19 1012.6
20260505022052 23 300 9.7 19.3 0.00 0.00 0.00 20 1012.5
20260505021550 23 286 8.0 19.3 0.00 0.00 0.00 20 1012.4
20260505021048 23 246 8.0 17.7 0.00 0.00 0.00 21 1012.4
20260505020549 23 292 8.0 19.3 0.00 0.00 0.00 22 1012.4
20260505020050 23 269 8.0 16.1 0.00 0.00 0.00 22 1012.3
20260505015548 23 271 8.0 16.1 0.00 0.00 0.00 22 1012.2
20260505015048 23 286 6.4 16.1 0.00 0.00 0.00 22 1012.1
20260505014547 24 313 9.7 16.1 0.00 0.00 0.00 22 1012.0
20260505014047 24 248 8.0 24.1 0.00 0.00 0.00 21 1012.0
20260505013548 24 316 11.3 24.1 0.00 0.00 0.00 21 1012.1
20260505013047 24 310 8.0 19.3 0.00 0.00 0.00 21 1012.0
20260505012547 24 298 9.7 19.3 0.00 0.00 0.00 21 1012.0
20260505012048 24 293 8.0 20.9 0.00 0.00 0.00 21 1012.0
20260505011547 24 234 9.7 22.5 0.00 0.00 0.00 21 1012.0
20260505011047 25 286 12.9 24.1 0.00 0.00 0.00 21 1012.0
20260505010547 25 286 11.3 24.1 0.00 0.00 0.00 21 1012.0
20260505010057 25 259 6.4 19.3 0.00 0.00 0.00 21 1011.9
20260505005547 25 290 9.7 20.9 0.00 0.00 0.00 21 1011.8
20260505005047 25 257 12.9 20.9 0.00 0.00 0.00 20 1011.8
20260505004546 25 244 8.0 19.3 0.00 0.00 0.00 20 1011.9
20260505004045 25 286 9.7 20.9 0.00 0.00 0.00 20 1012.0
20260505003545 25 295 9.7 24.1 0.00 0.00 0.00 20 1012.3
20260505003043 25 286 14.5 24.1 0.00 0.00 0.00 19 1012.3
20260505002544 25 276 11.3 25.7 0.00 0.00 0.00 20 1012.4